Total_Precipitation_Accumulation
0.06 0.03 0.02 0.02 0.01 0.00 0.00 0.00 0.00 0.01 0.00 0.00 0.00 0.00 0.00 0.01 0.01 0.03 0.00 0.00 0.00 0.00 0.02 0.04 0.14 0.16 0.12 0.08 0.08 0.05 0.05 0.05 0.06 0.05 0.06 0.07 0.04 0.03 0.02 0.02 0.02 0.03 0.06 0.09 0.10 0.13 0.19 0.16 0.10
0.06 0.13 0.15 0.08 0.02 0.00 0.00 0.00 0.00 0.00 0.00 0.00 0.00 0.00 0.00 0.00 0.00 0.06 0.01 0.00 0.00 0.00 0.01 0.03 0.11 0.12 0.12 0.10 0.07 0.04 0.04 0.03 0.05 0.05 0.07 0.08 0.03 0.01 0.01 0.02 0.04 0.06 0.09 0.10 0.09 0.13 0.09 0.01 0.03
0.12 0.27 0.28 0.11 0.02 0.00 0.00 0.00 0.01 0.00 0.00 0.00 0.00 0.00 0.00 0.00 0.01 0.09 0.03 0.00 0.00 0.00 0.01 0.03 0.08 0.11 0.11 0.09 0.05 0.04 0.05 0.04 0.03 0.05 0.10 0.12 0.04 0.01 0.01 0.04 0.07 0.06 0.07 0.10 0.12 0.09 0.01 0.00 0.00
0.27 0.53 0.44 0.11 0.01 0.00 0.00 0.02 0.00 0.00 0.00 0.00 0.00 0.00 0.00 0.00 0.00 0.01 0.01 0.01 0.01 0.01 0.01 0.06 0.09 0.10 0.08 0.05 0.05 0.06 0.05 0.05 0.04 0.04 0.06 0.10 0.06 0.01 0.03 0.04 0.03 0.03 0.05 0.06 0.03 0.01 0.02 0.01 0.01
0.43 0.37 0.53 0.19 0.00 0.00 0.00 0.01 0.00 0.00 0.00 0.00 0.00 0.00 0.00 0.00 0.00 0.00 0.02 0.01 0.01 0.01 0.02 0.05 0.09 0.09 0.06 0.05 0.06 0.07 0.06 0.05 0.05 0.04 0.03 0.04 0.06 0.04 0.04 0.03 0.01 0.01 0.02 0.01 0.02 0.01 0.01 0.00 0.00
0.31 0.31 0.46 0.26 0.01 0.00 0.00 0.00 0.00 0.00 0.00 0.00 0.00 0.00 0.01 0.01 0.01 0.02 0.02 0.01 0.01 0.01 0.03 0.05 0.09 0.09 0.07 0.05 0.06 0.04 0.05 0.06 0.06 0.03 0.03 0.03 0.05 0.05 0.03 0.02 0.03 0.01 0.01 0.01 0.01 0.00 0.01 0.01 0.01
0.16 0.16 0.22 0.03 0.00 0.00 0.00 0.00 0.00 0.00 0.00 0.00 0.00 0.00 0.08 0.10 0.10 0.11 0.09 0.03 0.02 0.02 0.03 0.06 0.10 0.08 0.06 0.05 0.04 0.03 0.04 0.06 0.05 0.04 0.03 0.03 0.03 0.02 0.02 0.03 0.03 0.02 0.02 0.02 0.02 0.03 0.02 0.01 0.01
0.11 0.15 0.08 0.05 0.01 0.00 0.00 0.02 0.00 0.00 0.00 0.00 0.00 0.00 0.09 0.09 0.13 0.25 0.17 0.09 0.03 0.03 0.04 0.03 0.09 0.11 0.09 0.06 0.06 0.04 0.05 0.04 0.04 0.03 0.01 0.00 0.00 0.01 0.02 0.01 0.02 0.01 0.00 0.01 0.02 0.02 0.02 0.01 0.01
0.22 0.18 0.05 0.03 0.02 0.01 0.01 0.05 0.00 0.00 0.00 0.00 0.00 0.00 0.02 0.06 0.20 0.31 0.25 0.18 0.12 0.07 0.05 0.04 0.05 0.08 0.07 0.06 0.05 0.04 0.03 0.02 0.02 0.01 0.00 0.00 0.01 0.01 0.01 0.00 0.00 0.00 0.00 0.00 0.00 0.01 0.01 0.01 0.00
0.36 0.03 0.00 0.00 0.00 0.01 0.02 0.01 0.00 0.01 0.00 0.00 0.02 0.10 0.16 0.19 0.33 0.50 0.25 0.16 0.12 0.12 0.11 0.06 0.07 0.07 0.09 0.05 0.02 0.03 0.02 0.02 0.01 0.00 0.00 0.00 0.00 0.01 0.01 0.00 0.00 0.00 0.00 0.00 0.00 0.00 0.00 0.00 0.00
0.23 0.02 0.00 0.00 0.01 0.03 0.10 0.10 0.01 0.06 0.01 0.00 0.01 0.09 0.21 0.30 0.39 0.53 0.57 0.22 0.17 0.16 0.09 0.07 0.11 0.10 0.10 0.04 0.03 0.02 0.01 0.01 0.00 0.00 0.00 0.00 0.00 0.00 0.00 0.01 0.01 0.00 0.00 0.00 0.00 0.00 0.00 0.00 0.00
0.26 0.03 0.01 0.00 0.04 0.06 0.11 0.25 0.05 0.03 0.01 0.00 0.00 0.06 0.18 0.19 0.26 0.36 0.50 0.48 0.39 0.26 0.11 0.10 0.19 0.22 0.10 0.02 0.02 0.02 0.00 0.00 0.00 0.00 0.00 0.00 0.00 0.00 0.00 0.00 0.00 0.00 0.00 0.00 0.00 0.00 0.00 0.00 0.00
0.12 0.06 0.02 0.01 0.02 0.06 0.02 0.14 0.18 0.02 0.02 0.03 0.00 0.01 0.06 0.07 0.23 0.39 0.51 1.12 1.31 0.69 0.17 0.18 0.27 0.28 0.08 0.05 0.02 0.01 0.00 0.00 0.00 0.00 0.00 0.00 0.00 0.00 0.00 0.00 0.00 0.00 0.00 0.00 0.00 0.00 0.00 0.00 0.00
0.08 0.08 0.06 0.02 0.02 0.01 0.01 0.01 0.20 0.07 0.03 0.06 0.00 0.01 0.02 0.08 0.16 0.25 0.27 0.26 0.52 0.70 0.40 0.30 0.10 0.16 0.20 0.10 0.03 0.03 0.01 0.00 0.00 0.00 0.00 0.00 0.00 0.00 0.00 0.00 0.00 0.00 0.00 0.00 0.00 0.00 0.00 0.00 0.00
0.12 0.14 0.15 0.05 0.04 0.05 0.00 0.02 0.10 0.07 0.02 0.03 0.01 0.00 0.00 0.06 0.08 0.04 0.04 0.10 0.20 0.52 1.08 0.82 0.43 0.22 0.19 0.16 0.18 0.11 0.03 0.00 0.00 0.00 0.00 0.00 0.00 0.00 0.00 0.00 0.00 0.00 0.00 0.00 0.00 0.00 0.00 0.00 0.00
0.23 0.47 0.33 0.03 0.02 0.05 0.07 0.01 0.01 0.05 0.02 0.05 0.04 0.00 0.00 0.00 0.01 0.01 0.02 0.12 0.35 0.52 0.43 0.60 0.54 0.24 0.16 0.25 0.32 0.16 0.09 0.06 0.03 0.01 0.00 0.00 0.00 0.00 0.00 0.00 0.00 0.00 0.00 0.00 0.00 0.00 0.00 0.00 0.00
0.30 0.38 0.19 0.05 0.00 0.01 0.10 0.02 0.00 0.01 0.04 0.01 0.01 0.03 0.00 0.00 0.00 0.04 0.05 0.08 0.17 0.15 0.33 0.30 0.44 0.50 0.29 0.29 0.36 0.39 0.23 0.11 0.09 0.04 0.01 0.00 0.00 0.00 0.00 0.00 0.00 0.00 0.00 0.00 0.00 0.00 0.00 0.00 0.00
0.21 0.05 0.03 0.07 0.01 0.01 0.03 0.01 0.01 0.00 0.00 0.00 0.00 0.02 0.01 0.00 0.00 0.04 0.12 0.11 0.15 0.19 0.20 0.35 0.39 0.55 0.63 0.64 0.61 0.64 0.42 0.24 0.18 0.10 0.08 0.06 0.02 0.00 0.00 0.00 0.00 0.00 0.00 0.00 0.00 0.00 0.00 0.00 0.00
0.27 0.05 0.02 0.01 0.02 0.01 0.01 0.00 0.02 0.01 0.00 0.00 0.00 0.00 0.02 0.00 0.00 0.01 0.07 0.09 0.11 0.14 0.09 0.25 0.54 0.65 0.66 0.54 0.44 0.48 0.39 0.36 0.37 0.47 0.37 0.29 0.10 0.06 0.03 0.00 0.00 0.00 0.00 0.00 0.00 0.00 0.00 0.00 0.00
0.50 0.26 0.05 0.02 0.03 0.03 0.00 0.01 0.01 0.02 0.00 0.00 0.00 0.00 0.00 0.01 0.00 0.00 0.01 0.03 0.06 0.17 0.09 0.23 0.40 0.61 0.66 0.67 0.73 0.85 1.17 0.96 0.95 0.91 0.50 0.39 0.38 0.37 0.14 0.04 0.01 0.00 0.00 0.00 0.00 0.00 0.00 0.00 0.00
0.95 0.29 0.15 0.06 0.08 0.10 0.04 0.03 0.00 0.00 0.00 0.00 0.00 0.00 0.00 0.00 0.01 0.00 0.00 0.01 0.04 0.10 0.13 0.24 0.27 0.20 0.34 0.79 0.88 0.81 1.08 0.91 0.84 0.69 0.57 0.55 0.67 0.73 0.38 0.20 0.10 0.06 0.07 0.07 0.03 0.05 0.05 0.05 0.02
1.43 0.28 0.16 0.19 0.16 0.11 0.04 0.08 0.00 0.00 0.00 0.00 0.00 0.00 0.00 0.00 0.00 0.00 0.00 0.00 0.00 0.01 0.08 0.20 0.31 0.32 0.30 0.44 0.56 0.52 0.42 0.41 0.43 0.70 0.99 0.94 1.04 1.16 0.89 0.66 0.43 0.28 0.21 0.18 0.24 0.19 0.16 0.14 0.11
1.31 0.44 0.31 0.28 0.23 0.18 0.08 0.11 0.01 0.00 0.00 0.00 0.00 0.00 0.00 0.00 0.00 0.00 0.00 0.00 0.00 0.00 0.01 0.06 0.20 0.35 0.22 0.24 0.32 0.40 0.42 0.45 0.48 0.51 0.58 0.74 0.73 0.77 1.12 1.03 0.82 0.56 0.63 0.53 0.39 0.42 0.32 0.20 0.16
0.91 1.09 0.70 0.58 0.75 0.88 0.12 0.07 0.03 0.00 0.00 0.00 0.00 0.00 0.00 0.00 0.00 0.00 0.00 0.00 0.00 0.00 0.00 0.00 0.05 0.21 0.30 0.27 0.26 0.40 0.47 0.60 0.54 0.43 0.55 0.55 0.59 0.49 0.45 0.57 0.60 0.61 0.47 0.57 0.63 0.50 0.37 0.37 0.28
1.55 2.17 2.80 2.23 1.82 0.61 0.04 0.06 0.02 0.00 0.00 0.00 0.00 0.00 0.00 0.00 0.00 0.00 0.00 0.00 0.00 0.00 0.00 0.00 0.00 0.04 0.20 0.27 0.21 0.24 0.25 0.29 0.37 0.46 0.43 0.45 0.45 0.44 0.46 0.44 0.43 0.39 0.35 0.33 0.33 0.33 0.31 0.30 0.32
1.68 1.72 1.82 1.15 0.47 0.16 0.08 0.04 0.00 0.00 0.00 0.00 0.00 0.00 0.00 0.00 0.00 0.00 0.00 0.00 0.00 0.00 0.01 0.01 0.00 0.00 0.04 0.14 0.21 0.16 0.17 0.19 0.22 0.28 0.29 0.35 0.42 0.47 0.55 0.63 0.55 0.41 0.39 0.32 0.26 0.26 0.31 0.34 0.45
1.57 1.33 0.73 0.66 0.40 0.26 0.16 0.03 0.00 0.00 0.00 0.00 0.00 0.00 0.00 0.00 0.00 0.00 0.00 0.00 0.00 0.00 0.00 0.00 0.00 0.00 0.01 0.09 0.13 0.15 0.16 0.24 0.19 0.21 0.19 0.19 0.19 0.23 0.29 0.37 0.47 0.40 0.34 0.32 0.27 0.23 0.21 0.22 0.27
0.81 0.65 0.89 1.17 1.06 0.47 0.19 0.03 0.00 0.00 0.00 0.00 0.00 0.00 0.00 0.00 0.00 0.00 0.00 0.00 0.00 0.00 0.00 0.00 0.00 0.00 0.01 0.03 0.06 0.05 0.11 0.22 0.19 0.16 0.12 0.16 0.15 0.13 0.15 0.13 0.12 0.13 0.14 0.15 0.16 0.18 0.18 0.21 0.23
0.93 1.18 0.84 0.67 0.47 0.58 0.46 0.15 0.02 0.04 0.02 0.02 0.04 0.01 0.00 0.00 0.00 0.00 0.00 0.00 0.00 0.00 0.00 0.00 0.00 0.00 0.01 0.00 0.00 0.02 0.05 0.08 0.09 0.08 0.09 0.11 0.10 0.08 0.08 0.08 0.08 0.06 0.05 0.04 0.05 0.08 0.10 0.16 0.21
0.44 0.49 0.56 0.97 0.49 0.47 0.47 0.23 0.02 0.06 0.08 0.10 0.05 0.00 0.00 0.00 0.00 0.00 0.00 0.00 0.00 0.00 0.00 0.00 0.00 0.00 0.00 0.00 0.00 0.01 0.02 0.04 0.05 0.06 0.04 0.03 0.03 0.02 0.01 0.01 0.01 0.01 0.01 0.01 0.02 0.03 0.05 0.07 0.09